Regional Weather Roundup
Issued by NWS

Home | Current Version | Previous Version | Text Only | Print | Product List | Glossary Off
Versions: 1 2 3 4 5 6 7 8 9 10 11 12 13 14 15 16 17 18 19 20 21 22 23 24 25 26 27 28 29 30 31 32 33 34 35 36 37 38 39 40 41 42 43 44 45 46 47 48 49 50

000
ASUS43 KMPX 271510
RWRMN
WEATHER ROUNDUP FOR MINNESOTA
NATIONAL WEATHER SERVICE TWIN CITIES/CHANHASSEN MN
1000 AM CDT FRI MAR 27 2015


NOTE: "FAIR" INDICATES FEW OR NO CLOUDS BELOW 12,000 FEET WITH NO
SIGNIFICANT WEATHER AND/OR OBSTRUCTIONS TO VISIBILITY. N/A MEANS
CURRENT SKY AND/OR WEATHER CONDITIONS ARE NOT AVAILABLE.

MNZ060>063-068>070-271600-
   Twin Cities Metro

CITY           SKY/WX    TMP DP  RH WIND       PRES   REMARKS
TWIN CITIES    SUNNY     25   4  40 CALM      30.28S
ST PAUL        SUNNY     25   4  40 N3        30.30S
CRYSTAL        SUNNY     26   5  40 CALM      30.28S
BLAINE         SUNNY     25   9  50 NE6       30.28S WCI  18
LAKEVILLE      SUNNY     21   7  53 CALM      30.27F
EDEN PRAIRIE   SUNNY     25   5  42 CALM      30.27F
SOUTH ST PAUL  FAIR      26   4  39 CALM      30.29S
LAKE ELMO      FAIR      27   9  46 N5        30.29R WCI  21
$$
MNZ001>005-007-008-013>017-022>024-027-028-271600-
   Northwest Minnesota

CITY           SKY/WX    TMP DP  RH WIND       PRES   REMARKS
BEMIDJI        SUNNY     22   5  48 S8        30.22F WCI  13
HALLOCK        PTSUNNY   23  14  68 S12       30.19F WCI  12
ROSEAU         MOSUNNY   25  10  54 S13       30.20F WCI  13
WARROAD        SUNNY     25  10  54 S7        30.21F WCI  17
THIEF RVR FALL MOSUNNY   25   7  46 S15       30.21F WCI  12
CROOKSTON      PTSUNNY   25  16  68 SW10      30.23F WCI  15
FOSSTON        MOSUNNY   23   5  46 S12       30.22F WCI  12
DETROIT LAKES  MOSUNNY   23  12  63 S6        30.23F WCI  16
MOORHEAD       MOSUNNY   25  12  58 S9        30.24F WCI  15
PARK RAPIDS    SUNNY     22   4  46 S8        30.22F WCI  12
MAHNOMEN       FAIR      22   7  53 S12       30.22F WCI  10
$$
MNZ006-009>011-018-025>026-271600-
   North Central Minnesota

CITY           SKY/WX    TMP DP  RH WIND       PRES   REMARKS
BAUDETTE       SUNNY     21   7  54 S9        30.22F WCI  11
FLAG ISLAND    SUNNY     12   7  79 SE8       30.21F WCI   1
INTL FALLS     SUNNY     19   7  59 SW7       30.24F WCI  10
WASKISH        SUNNY     25   7  46 S7        30.23F WCI  17
BIG FORK       SUNNY     21   9  58 SW5       30.24S WCI  15
LONGVILLE      SUNNY     21   5  49 SE5       30.24S WCI  15
GRAND RAPIDS   SUNNY     19   3  49 S6        30.24S WCI  11
CRANE LAKE     SUNNY     16   7  67 W2        30.28S
ORR            SUNNY     19   3  49 SW5       30.21F WCI  13
COOK           SUNNY     18   7  62 CALM      30.24F
WALKER         FAIR      22   3  44 S3        30.23F
$$
MNZ012-019>021-037-271600-
   Northeast Minnesota

CITY           SKY/WX    TMP DP  RH WIND       PRES   REMARKS
DULUTH         MOSUNNY   21   0  39 CALM      30.24R
ELY            SUNNY     16   3  57 CALM      30.23F
HIBBING        SUNNY     19   3  49 VRB3      30.24F
EVELETH        SUNNY     21   5  49 CALM      30.24F
DULUTH HARBOR  SUNNY     25   9  50 CALM      30.31R
TWO HARBORS    SUNNY     25   3  39 CALM      30.24S
SILVER BAY     SUNNY     21   3  45 CALM      30.24F
GRAND MARAIS     N/A     18   1  47 E6        30.31F WCI  10
G MARAIS ARPRT SUNNY     12 -11  34 NE3       30.19F
$$
MNZ029>031-032-039>041-046>048-054>057-064-271600-
   West Central Minnesota

CITY           SKY/WX    TMP DP  RH WIND       PRES   REMARKS
FERGUS FALLS   SUNNY     25   5  42 S9        30.27F WCI  15
WHEATON        PTSUNNY   23  14  68 S6        30.27F WCI  16
MORRIS         MOSUNNY   25  10  54 SE7       30.25F WCI  17
ALEXANDRIA     SUNNY     24   6  46 S8        30.24S WCI  15
ELBOW LAKE     FAIR      24  12  58 S9        30.25F WCI  15
WADENA         SUNNY     21   7  53 S6        30.24R WCI  14
GLENWOOD       SUNNY     25   7  46 S6        30.25S WCI  18
APPLETON       MOSUNNY   27  10  50 S6        30.27S WCI  20
BENSON         MOSUNNY   25  10  54 S3        30.27S
ORTONVILLE     MOSUNNY   25  16  68 S3        30.26S
MADISON        MOSUNNY   27  12  54 S5        30.27F WCI  21
WILLMAR        FAIR      25   5  42 SE7       30.27S WCI  17
$$
MNZ033>034-036-042>043-049>051-058-059-271600-
   Central Minnesota

CITY           SKY/WX    TMP DP  RH WIND       PRES   REMARKS
ST CLOUD       SUNNY     23   3  42 SE3       30.27F
SAUK CENTRE    FAIR      23   5  46 SE5       30.26S WCI  17
PAYNESVILLE    SUNNY     20   4  49 CALM      30.26F
AITKIN         SUNNY     23   3  42 CALM      30.25R
PINE RIVER     SUNNY     21   7  53 S5        30.27F WCI  15
BRAINERD       SUNNY     21   3  45 SE3       30.26S
STAPLES        SUNNY     21   3  45 CALM      30.24F
LONG PRAIRIE   FAIR      23   5  46 SE3       30.25F
LITTLE FALLS   SUNNY     23   1  39 SE3       30.26S
LITCHFIELD     SUNNY     25   7  46 SE3       30.27S
BUFFALO        SUNNY     23   5  46 CALM      30.29F
MAPLE LAKE     SUNNY     25   8  49 CALM      30.28S
$$
MNZ037-044-045-052-053-271600-
   East Central Minnesota

CITY           SKY/WX    TMP DP  RH WIND       PRES   REMARKS
PRINCETON      SUNNY     25   7  46 CALM      30.27S
MORA           SUNNY     23   5  46 CALM      30.28F
CAMBRIDGE      SUNNY     25   9  50 CALM      30.26S
RUSH CITY      SUNNY     23   8  53 CALM      30.28S
MOOSE LAKE     SUNNY     23   7  50 CALM      30.25F
HINCKLEY       FAIR      23   9  54 CALM      30.27F
CLOQUET        SUNNY     19   1  45 CALM      30.24S
MCGREGOR       SUNNY     21   5  49 CALM      30.26S
$$
MNZ071>073-080-081-089-090-097-098-271600-
   Southwest Minnesota

CITY           SKY/WX    TMP DP  RH WIND       PRES   REMARKS
MONTEVIDEO     MOSUNNY   28  12  50 S3        30.28S
GRANITE FALLS  MOSUNNY   25  11  57 CALM      30.30S
CANBY          MOSUNNY   24  15  69 CALM      30.27F
MARSHALL       MOSUNNY   25  10  54 CALM      30.27F
REDWOOD FALLS  SUNNY     25   7  46 SE5       30.27F WCI  19
OLIVIA         SUNNY     27  10  50 SE7       30.27S WCI  19
PIPESTONE      PTSUNNY   25   9  50 CALM      30.23F
WINDOM         SUNNY     27  10  50 CALM      30.25S
WORTHINGTON    SUNNY     23   9  54 CALM      30.25F
JACKSON        SUNNY     27  10  50 CALM      30.25S
TRACY          MOSUNNY   24  11  58 CALM      30.26F
SLAYTON        SUNNY     24   7  48 CALM      30.24F
$$
MNZ065>067-074>077-082>085-091>093-271600-
   South Central Minnesota

CITY           SKY/WX    TMP DP  RH WIND       PRES   REMARKS
MANKATO        SUNNY     25   7  46 E6        30.27F WCI  18
NEW ULM        SUNNY     23   7  50 E3        30.27F
ST JAMES       SUNNY     27  10  50 E3        30.28S
FAIRMONT       SUNNY     25   7  46 E3        30.26S
GLENCOE        SUNNY     25  10  53 E3        30.27S
FARIBAULT      SUNNY     23   7  50 N3        30.27S
OWATONNA       SUNNY     21   7  53 NE5       30.26S WCI  15
WASECA         SUNNY     21   9  58 NE8       30.27F WCI  12
ALBERT LEA     SUNNY     25  10  54 NE3       30.25S
$$
MNZ078>079-086>088-094>096-271600-
   Southeast Minnesota

CITY           SKY/WX    TMP DP  RH WIND       PRES   REMARKS
ROCHESTER      SUNNY     21   8  57 NE6       30.25R WCI  13
RED WING       SUNNY     27   3  36 N5        30.28R WCI  21
STANTON        SUNNY     22   9  58 CALM      30.27R
DODGE CENTER   SUNNY     19   9  63 NE3       30.24S
WINONA         SUNNY     28  12  50 CALM      30.28S
AUSTIN         SUNNY     23   9  54 CALM      30.25R
PRESTON        SUNNY     21   8  56 N5        30.25R WCI  15
$$
ABBREVIATIONS USED IN REMARKS
   TC - TEMPERATURES IN CELSIUS
  WCI - WIND CHILL INDEX
   HX - HEAT INDEX
  VSB - VISIBILITY
$$



USA.gov is the U.S. government's official web portal to all federal, state and local government web resources and services.